Hot Springs, VA

6:29 PM EDT on September 28, 2016 (GMT -0400)
Ingalls

Weather History for KHSP - May, 2014

Change the Weather History Date:

Saturday, May 24, 2014

  Actual Average Record
Temperature  
Mean Temperature 54 °F -  
Max Temperature 64 °F 63 °F 75 °F (1997)
Min Temperature 43 °F 49 °F 37 °F (2013)
Degree Days  
Heating Degree Days 12    
Growing Degree Days 4 (Base 50)    
Moisture  
Dew Point 39 °F    
Average Humidity 60    
Maximum Humidity 82    
Minimum Humidity 36    
Precipitation  
Precipitation 0.00 in - - ()
Sea Level Pressure  
Sea Level Pressure 30.19 in    
Wind  
Wind Speed 10 mph (NW)    
Max Wind Speed 14 mph    
Max Gust Speed 21 mph    
Visibility 10 miles    
Events      
Averages and records for this station are not official NWS values.
T = Trace of Precipitation, MM = Missing Value Source: NWS Daily Summary

Daily Weather History Graph

Daily Weather History Graph

Search for Another Location

Airport or City:

Trip Planner

Search our weather history database for the weather conditions in past years. The results will help you decide how hot, cold, wet, or windy it might be!

Date:

Astronomy

May. 24, 2014 Rise Set
Actual Time 6:02 AM EDT 8:30 PM EDT
Civil Twilight 5:32 AM EDT 9:00 PM EDT
Nautical Twilight 4:54 AM EDT 9:38 PM EDT
Astronomical Twilight 4:13 AM EDT 10:19 PM EDT
Moon 3:26 AM EDT (5/24) 4:29 PM EDT (5/24)
Length of Visible Light 15h 28m
Length of Day
14h 27m
Waning Crescent, 18% of the Moon is Illuminated
May 24
Waning Crescent
May 28
New
Jun 5
First Quarter
Jun 13
Full
Jun 19
Last Quarter

Hourly Weather History & Observations

Time (EDT) Temp. Windchill Dew Point Humidity Pressure Visibility Wind Dir Wind Speed Gust Speed Precip Events Conditions
12:15 AM 49.3 °F - 39.2 °F 68% 30.15 in 10.0 mi NW 13.8 mph 20.7 mph N/A   Scattered Clouds
12:35 AM 48.6 °F - 39.0 °F 70% 30.14 in 10.0 mi NNW 11.5 mph 16.1 mph N/A   Clear
12:55 AM 47.7 °F - 38.7 °F 71% 30.15 in 10.0 mi NNW 10.4 mph - N/A   Clear
1:10 AM 47.8 °F - 38.5 °F 70% 30.14 in 10.0 mi NW 12.7 mph 18.4 mph N/A   Clear
1:35 AM 47.3 °F - 38.3 °F 71% 30.14 in 10.0 mi NW 13.8 mph 20.7 mph N/A   Clear
1:55 AM 46.8 °F - 37.8 °F 71% 30.14 in 10.0 mi WNW 11.5 mph 18.4 mph N/A   Clear
2:15 AM 46.4 °F 41.1 °F 37.8 °F 72% 30.14 in 10.0 mi NW 11.5 mph 19.6 mph N/A   Clear
2:35 AM 45.5 °F 40.8 °F 37.6 °F 74% 30.14 in 10.0 mi NW 9.2 mph - N/A   Clear
2:55 AM 44.8 °F 39.4 °F 37.4 °F 75% 30.14 in 10.0 mi NW 10.4 mph - N/A   Clear
3:15 AM 45.1 °F 39.1 °F 37.4 °F 74% 30.13 in 10.0 mi NW 12.7 mph - N/A   Clear
3:35 AM 45.0 °F 39.3 °F 37.4 °F 75% 30.14 in 10.0 mi NW 11.5 mph - N/A   Clear
3:55 AM 44.8 °F 39.9 °F 37.6 °F 76% 30.14 in 10.0 mi NW 9.2 mph - N/A   Clear
4:15 AM 44.2 °F 38.8 °F 37.6 °F 77% 30.14 in 10.0 mi NW 10.4 mph - N/A   Clear
4:35 AM 43.9 °F 38.8 °F 37.8 °F 79% 30.14 in 10.0 mi NW 9.2 mph - N/A   Clear
4:55 AM 43.2 °F 37.9 °F 37.8 °F 81% 30.15 in 10.0 mi NW 9.2 mph - N/A   Clear
5:15 AM 43.3 °F 37.2 °F 37.8 °F 81% 30.14 in 10.0 mi NW 11.5 mph - N/A   Clear
5:35 AM 43.3 °F 38.1 °F 37.8 °F 81% 30.15 in 10.0 mi WNW 9.2 mph - N/A   Clear
5:55 AM 43.3 °F 36.8 °F 37.8 °F 81% 30.15 in 10.0 mi NW 12.7 mph - N/A   Clear
6:15 AM 43.7 °F 37.7 °F 37.9 °F 80% 30.16 in 10.0 mi NW 11.5 mph 18.4 mph N/A   Clear
6:35 AM 43.5 °F 37.5 °F 38.3 °F 82% 30.17 in 10.0 mi NW 11.5 mph 18.4 mph N/A   Clear
6:55 AM 44.1 °F 37.7 °F 38.3 °F 80% 30.17 in 10.0 mi NW 12.7 mph 17.3 mph N/A   Clear
7:15 AM 44.6 °F 38.8 °F 38.7 °F 80% 30.18 in 10.0 mi NW 11.5 mph - N/A   Clear
7:35 AM 44.6 °F 38.1 °F 39.0 °F 81% 30.18 in 10.0 mi NW 13.8 mph - N/A   Clear
8:15 AM 45.9 °F 39.7 °F 39.4 °F 78% 30.18 in 10.0 mi NW 13.8 mph 20.7 mph N/A   Clear
8:35 AM 46.8 °F - 39.6 °F 76% 30.19 in 10.0 mi NW 11.5 mph 17.3 mph N/A   Clear
8:55 AM 47.3 °F - 39.7 °F 75% 30.19 in 10.0 mi NNW 10.4 mph - N/A   Clear
9:15 AM 47.7 °F - 39.7 °F 74% 30.21 in 10.0 mi NNW 8.1 mph 16.1 mph N/A   Clear
9:35 AM 48.9 °F - 40.3 °F 72% 30.21 in 10.0 mi North 5.8 mph - N/A   Scattered Clouds
9:55 AM 49.6 °F - 40.5 °F 71% 30.21 in 10.0 mi NW 8.1 mph - N/A   Scattered Clouds
10:15 AM 51.4 °F - 40.8 °F 67% 30.22 in 10.0 mi NNW 8.1 mph - N/A   Clear
10:35 AM 51.8 °F - 41.2 °F 67% 30.21 in 10.0 mi NW 6.9 mph - N/A   Clear
10:55 AM 53.2 °F - 40.8 °F 63% 30.21 in 10.0 mi WNW 12.7 mph - N/A   Clear
11:15 AM 54.0 °F - 41.5 °F 63% 30.23 in 10.0 mi WNW 9.2 mph 17.3 mph N/A   Scattered Clouds
11:35 AM 55.0 °F - 42.3 °F 62% 30.22 in 10.0 mi NW 5.8 mph - N/A   Scattered Clouds
11:55 AM 56.3 °F - 41.7 °F 58% 30.23 in 10.0 mi NW 11.5 mph - N/A   Clear
12:15 PM 56.7 °F - 41.7 °F 57% 30.22 in 10.0 mi WNW 8.1 mph - N/A   Scattered Clouds
12:35 PM 57.6 °F - 41.5 °F 55% 30.22 in 10.0 mi NNW 3.5 mph - N/A   Clear
12:55 PM 59.2 °F - 41.4 °F 52% 30.21 in 10.0 mi WNW 10.4 mph 16.1 mph N/A   Clear
1:15 PM 60.6 °F - 41.4 °F 49% 30.20 in 10.0 mi NNW 8.1 mph - N/A   Clear
1:35 PM 61.5 °F - 39.6 °F 44% 30.20 in 10.0 mi NNW 10.4 mph 16.1 mph N/A   Clear
1:55 PM 61.2 °F - 39.4 °F 45% 30.20 in 10.0 mi WNW 6.9 mph - N/A   Clear
2:15 PM 62.8 °F - 41.7 °F 46% 30.19 in 10.0 mi NNW 11.5 mph - N/A   Scattered Clouds
2:35 PM 63.0 °F - 39.7 °F 42% 30.19 in 10.0 mi NW 9.2 mph - N/A   Scattered Clouds
2:55 PM 62.2 °F - 39.2 °F 43% 30.19 in 10.0 mi NW 8.1 mph - N/A   Scattered Clouds
3:15 PM 63.9 °F - 40.1 °F 42% 30.18 in 10.0 mi WNW 10.4 mph 18.4 mph N/A   Scattered Clouds
3:35 PM 64.8 °F - 41.2 °F 42% 30.18 in 10.0 mi North 8.1 mph - N/A   Scattered Clouds
3:55 PM 64.2 °F - 39.7 °F 41% 30.18 in 10.0 mi WNW 9.2 mph - N/A   Scattered Clouds
4:15 PM 64.2 °F - 39.0 °F 39% 30.18 in 10.0 mi WNW 5.8 mph - N/A   Scattered Clouds
4:35 PM 63.9 °F - 38.7 °F 39% 30.18 in 10.0 mi NW 6.9 mph - N/A   Scattered Clouds
4:55 PM 64.6 °F - 38.5 °F 38% 30.18 in 10.0 mi North 6.9 mph - N/A   Scattered Clouds
5:15 PM 64.4 °F - 37.8 °F 37% 30.18 in 10.0 mi NNW 6.9 mph - N/A   Scattered Clouds
5:35 PM 64.8 °F - 37.9 °F 37% 30.19 in 10.0 mi NNW 10.4 mph - N/A   Clear
5:55 PM 64.6 °F - 37.0 °F 36% 30.19 in 10.0 mi WNW 10.4 mph - N/A   Clear
6:15 PM 63.9 °F - 36.7 °F 37% 30.19 in 10.0 mi WNW 6.9 mph - N/A   Clear
6:35 PM 63.7 °F - 37.9 °F 39% 30.19 in 10.0 mi NW 10.4 mph - N/A   Clear
6:55 PM 63.0 °F - 38.7 °F 41% 30.19 in 10.0 mi NNW 8.1 mph - N/A   Clear
7:15 PM 62.1 °F - 39.6 °F 44% 30.20 in 10.0 mi NNW 8.1 mph - N/A   Clear
7:35 PM 61.0 °F - 39.2 °F 45% 30.21 in 10.0 mi North 10.4 mph - N/A   Clear
7:55 PM 59.5 °F - 39.6 °F 48% 30.21 in 10.0 mi North 8.1 mph - N/A   Clear
8:15 PM 58.1 °F - 39.9 °F 51% 30.22 in 10.0 mi North 6.9 mph - N/A   Clear
8:35 PM 56.7 °F - 40.1 °F 54% 30.22 in 10.0 mi North 6.9 mph - N/A   Clear
8:55 PM 55.8 °F - 40.3 °F 56% 30.23 in 10.0 mi North 6.9 mph - N/A   Clear
9:15 PM 55.2 °F - 40.1 °F 57% 30.23 in 10.0 mi North 9.2 mph - N/A   Clear
9:35 PM 54.9 °F - 38.8 °F 55% 30.23 in 10.0 mi North 8.1 mph - N/A   Clear
9:55 PM 54.5 °F - 38.8 °F 56% 30.24 in 10.0 mi North 9.2 mph - N/A   Clear
10:15 PM 54.5 °F - 38.8 °F 56% 30.25 in 10.0 mi North 8.1 mph - N/A   Clear
10:35 PM 54.3 °F - 39.2 °F 57% 30.26 in 10.0 mi North 8.1 mph - N/A   Clear
10:55 PM 54.1 °F - 39.4 °F 57% 30.26 in 10.0 mi North 6.9 mph - N/A   Clear
11:10 PM 54.3 °F - 39.4 °F 57% 30.26 in 10.0 mi North 6.9 mph - N/A   Clear
11:35 PM 54.0 °F - 39.6 °F 58% 30.27 in 10.0 mi North 5.8 mph - N/A   Clear
11:55 PM 54.5 °F - 39.2 °F 56% 30.27 in 10.0 mi North 5.8 mph - N/A   Mostly Cloudy